[[{"header":{"parameterUnit":"m.s-1","parameterCategory":1,"la1":30.2991,"la2":30.254,"lo1":-89.0895,"lo2":-89.0444,"dy":0.0017,"dx":0.0017,"nx":28,"ny":28,"refTime":"2024-03-25T21:00:00:Z","depth":0,"parameterNumber":2,"parameterNumberName":"U-component_of_WINDS"},"data":[0,0,0,0,0,0,0,0,0,0,0,0,0,0,0,0,0,0,0,0,0,0,0,0,0,0,0,0,0,0,0,0,0,0,0,0,0,0,0,0,0,0,0,0,0,0,0,0,0,0,0,0,0,0,0,0,0,0,-9.044,-9.0445,0,-9.0856,-9.086,-9.0865,-9.1014,-9.1012,-9.1011,-9.1009,-9.1437,-9.1449,-9.1462,0,0,0,0,0,0,0,0,0,0,0,0,0,-8.9777,-8.9788,-9.044,-9.0445,-9.045,-9.0855,-9.0861,-9.0866,-9.1014,-9.1012,-9.101,-9.1009,-9.1433,-9.1448,-9.1463,0,0,0,0,0,0,0,0,0,0,0,0,0,-9.0116,-8.9792,-9.0439,-9.0573,-9.0589,-9.0854,-9.0861,-9.0868,-9.1014,-9.1012,-9.101,-9.1008,-9.1428,-9.1446,-9.1465,-9.1628,0,0,-9.1524,-9.1532,0,0,0,0,0,0,0,0,-9.0096,-9.014,-9.0548,-9.0564,-9.0582,-9.0881,-9.0784,-9.1123,-9.1015,-9.0853,-9.1009,-9.1007,-9.1254,-9.1287,-9.137,-9.1648,-9.1667,-9.1526,-9.1537,-9.1545,-9.1551,0,0,0,0,0,0,0,-9.0073,-9.0123,-9.0605,-9.0554,-9.0575,-9.0613,-9.0658,-9.0849,-9.1061,-9.0867,-9.0879,-9.0926,-9.1263,-9.1351,-9.1381,-9.1673,-9.1525,-9.1542,-9.1554,-9.1561,-9.2106,-9.2108,0,0,0,0,0,0,-9.0026,-9.0102,-9.0591,-9.0617,-9.0329,-9.0626,-9.0678,-9.0787,-9.1059,-9.1098,-9.0927,-9.0931,-9.132,-9.1359,-9.1397,-9.1604,-9.1545,-9.1563,-9.1574,-9.2103,-9.2106,-9.2109,0,0,0,0,0,0,-9.0012,-9.0069,-9.0575,-9.0363,-9.043,-9.064,-9.0762,-9.0797,-9.0885,-9.1105,-9.1143,-9.0978,-9.1319,-9.137,-9.1569,-9.1621,-9.1572,-9.1589,-9.2099,-9.2104,-9.2108,-9.2021,0,0,0,0,0,0,-8.9992,-9.0062,-9.0126,-9.0363,-9.0441,-9.0739,-9.0766,-9.0806,-9.0917,-9.0926,-9.1163,-9.12,-9.1321,-9.154,-9.1588,-9.1647,-9.1604,-9.2095,-9.2101,-9.2106,-9.202,-9.2022,-9.2023,0,0,0,0,0,-8.9968,-9.0086,-9.0128,-9.0186,-9.0525,-9.0742,-9.0786,-9.0923,-9.0921,-9.0987,-9.1128,-9.1192,-9.1608,-9.1559,-9.1615,-9.168,-9.2093,-9.21,-9.2106,-9.2019,-9.2021,-9.2023,0,0,0,0,0,0,-8.9849,-9.0119,-9.0169,-9.0367,-9.053,-9.0766,-9.0853,-9.0921,-9.1089,-9.109,-9.1254,-9.1306,-9.1492,-9.1607,-9.1547,-9.1852,-9.1855,-9.1873,-9.1769,-9.1773,-9.1775,-9.1742,-9.162,0,0,0,0,0,-8.9846,-8.9999,-9.0227,-9.038,-9.0459,-9.0642,-9.0742,-9.0833,-9.1009,-9.1078,-9.1234,-9.1403,-9.1572,-9.168,-9.1847,-9.2038,-9.2091,-9.2111,-9.2112,-9.2112,-9.2125,-9.2234,-9.2244,-9.2131,-9.2131,-9.2131,0,0,-8.9841,-9.0008,-9.0094,-9.036,-9.0497,-9.0652,-9.0699,-9.0861,-9.0978,-9.1104,-9.13,-9.1421,-9.162,-9.1815,-9.191,-9.1917,-9.2169,-9.2121,-9.2119,-9.2133,-9.2242,-9.2252,-9.2261,-9.2136,-9.2135,-9.2134,0,0,-8.9911,-9.0053,-9.0195,-9.0331,-9.0538,-9.0659,-9.0692,-9.0919,-9.1003,-9.1203,-9.13,-9.1443,-9.173,-9.1868,-9.1975,-9.2097,-9.2162,-9.2148,-9.2155,-9.2259,-9.2268,-9.2276,-9.2318,-9.2331,-9.216,-9.216,-9.216,0,-8.9879,-9.0115,-9.0259,-9.0416,-9.053,-9.0651,-9.0796,-9.0921,-9.1172,-9.1248,-9.1253,-9.1616,-9.1759,-9.1987,-9.2016,-9.2101,-9.2144,-9.212,-9.2255,-9.2265,-9.2275,-9.2317,-9.2332,-9.2157,-9.2157,-9.2158,-9.2158,0,-9.0065,-9.0228,-9.0318,-9.0555,-9.068,-9.083,-9.0997,-9.1106,-9.1187,-9.1307,-9.1509,-9.1685,-9.189,-9.1952,-9.2033,-9.2192,-9.219,-9.2223,-9.2228,-9.228,-9.2322,-9.2339,-9.2152,-9.2153,-9.2154,-9.2155,0,0,-9.007,-9.0385,-9.0415,-9.0524,-9.0761,-9.089,-9.1046,-9.1245,-9.1335,-9.1505,-9.1639,-9.1879,-9.1911,-9.2033,-9.2131,-9.2223,-9.2306,-9.2245,-9.2252,-9.2248,-9.249,-9.2462,-9.2478,-9.2352,-9.2355,-9.2358,-9.2473,0,-9.0169,-9.045,-9.0585,-9.0808,-9.0959,-9.1076,-9.1213,-9.1373,-9.149,-9.1636,-9.1767,-9.1933,-9.1964,-9.2038,-9.2134,-9.2275,-9.2356,-9.2269,-9.2477,-9.2483,-9.2421,-9.25,-9.2472,-9.2571,-9.249,-9.2493,-9.2496,0,-9.0321,-9.0488,-9.0725,-9.0944,-9.1012,-9.1132,-9.1325,-9.1464,-9.1648,-9.1727,-9.1863,-9.1958,-9.2127,-9.2122,-9.2357,-9.2294,-9.2388,-9.247,-9.2478,-9.25,-9.249,-9.2523,-9.2606,-9.262,-9.2523,-9.2521,-9.2519,0,-9.0297,-9.0582,-9.0761,-9.0851,-9.1111,-9.1192,-9.1304,-9.1486,-9.1597,-9.1767,-9.1841,-9.2028,-9.213,-9.2273,-9.2416,-9.24,-9.2637,-9.2644,-9.2706,-9.2702,-9.2749,-9.2743,-9.2845,-9.2813,-9.2812,-9.2812,-9.2812,0,-9.0392,-9.0532,-9.0754,-9.0863,-9.1024,-9.1178,-9.1333,-9.1454,-9.1615,-9.1751,-9.1866,-9.199,-9.2173,-9.2321,-9.2435,-9.2611,-9.2657,-9.2726,-9.2753,-9.2714,-9.2705,-9.2776,-9.2772,-9.2816,-9.2815,-9.2815,-9.2814,0,-9.0391,-9.0546,-9.0748,-9.0977,-9.1038,-9.1146,-9.1343,-9.1454,-9.1577,-9.1747,-9.1796,-9.1989,-9.217,-9.2327,-9.2567,-9.2643,-9.2823,-9.2859,-9.276,-9.2775,-9.2827,-9.2819,-9.2976,-9.3004,-9.2953,-9.2954,-9.2954,0,-9.044,-9.055,-9.0791,-9.0889,-9.0999,-9.1157,-9.127,-9.1427,-9.154,-9.1759,-9.1843,-9.2032,-9.2191,-9.2474,-9.2636,-9.282,-9.2859,-9.2902,-9.2887,-9.2844,-9.2858,-9.2848,-9.2859,-9.2901,-9.29,-9.29,-9.29,0,-9.0509,-9.058,-9.0739,-9.0924,-9.1056,-9.121,-9.1367,-9.1441,-9.1628,-9.175,-9.1935,-9.2058,-9.2301,-9.2487,-9.2688,-9.2806,-9.2884,-9.2904,-9.2928,-9.2887,-9.2824,-9.2857,-9.2757,-9.2899,-9.2899,-9.2899,-9.2899,-9.2899,-9.0535,-9.0637,-9.0822,-9.0995,-9.1129,-9.1273,-9.1388,-9.1526,-9.1682,-9.1891,-9.1975,-9.2163,-9.2347,-9.2625,-9.2742,-9.2892,-9.2905,-9.294,-9.2948,-9.2954,-9.2946,-9.2801,-9.293,-9.293,-9.293,-9.2931,-9.2931,0,-9.0608,-9.0732,-9.089,-9.1105,-9.1241,-9.1303,-9.148,-9.159,-9.1753,-9.1917,-9.207,-9.2283,-9.2464,-9.264,-9.2831,-9.2917,-9.2958,-9.2961,-9.2956,-9.2981,-9.2925,-9.2884,-9.2925,-9.2925,-9.2925,-9.2925,-9.2925,-9.2925,-9.0662,-9.0838,-9.0931,-9.1176,-9.1301,-9.1484,-9.158,-9.1714,-9.1845,-9.2076,-9.2227,-9.234,-9.251,-9.2713,-9.2882,-9.293,-9.2993,-9.2987,-9.3043,-9.2987,-9.2985,-9.2984,-9.2946,-9.3,-9.3,-9.3088,-9.3088,-9.3089]},{"header":{"parameterUnit":"m.s-1","parameterCategory":1,"la1":30.2991,"la2":30.254,"lo1":-89.0895,"lo2":-89.0444,"dy":0.0017,"dx":0.0017,"nx":28,"ny":28,"refTime":"2024-03-25T21:00:00:Z","depth":0,"parameterNumber":3,"parameterNumberName":"V-component_of_WINDS"},"data":[0,0,0,0,0,0,0,0,0,0,0,0,0,0,0,0,0,0,0,0,0,0,0,0,0,0,0,0,0,0,0,0,0,0,0,0,0,0,0,0,0,0,0,0,0,0,0,0,0,0,0,0,0,0,0,0,0,0,7.4102,7.4102,0,7.4129,7.4129,7.4129,7.4064,7.4062,7.4059,7.4058,7.4082,7.4084,7.4087,0,0,0,0,0,0,0,0,0,0,0,0,0,7.3991,7.3993,7.4102,7.4102,7.4103,7.4129,7.4129,7.413,7.4064,7.4061,7.4059,7.4057,7.4081,7.4084,7.4087,0,0,0,0,0,0,0,0,0,0,0,0,0,7.4031,7.3994,7.4102,7.4073,7.4071,7.4129,7.4129,7.413,7.4065,7.4061,7.4058,7.4055,7.408,7.4083,7.4087,7.4173,0,0,7.4099,7.4101,0,0,0,0,0,0,0,0,7.4029,7.4035,7.4077,7.4075,7.4073,7.409,7.4099,7.4144,7.4065,7.4067,7.4057,7.4054,7.4087,7.409,7.4101,7.4174,7.4175,7.4099,7.4102,7.4103,7.4104,0,0,0,0,0,0,0,7.4026,7.4033,7.4112,7.4078,7.4075,7.4058,7.406,7.4107,7.4094,7.4066,7.4062,7.4066,7.4085,7.4098,7.4101,7.4176,7.4099,7.4103,7.4105,7.4107,7.4322,7.4325,0,0,0,0,0,0,7.4027,7.4031,7.4111,7.4113,7.4043,7.4063,7.4065,7.4087,7.4093,7.4091,7.4069,7.4063,7.4093,7.4097,7.4102,7.4204,7.4103,7.4107,7.4109,7.4318,7.4322,7.4326,0,0,0,0,0,0,7.4025,7.4035,7.411,7.4071,7.4079,7.4068,7.4093,7.409,7.4103,7.4095,7.4092,7.4085,7.4091,7.4097,7.4157,7.4204,7.4109,7.4112,7.4314,7.432,7.4324,7.4408,0,0,0,0,0,0,7.4022,7.4035,7.4068,7.4072,7.4082,7.4165,7.4096,7.4092,7.411,7.4103,7.4109,7.4107,7.4089,7.4151,7.416,7.4207,7.4115,7.431,7.4317,7.4323,7.4401,7.4415,7.4427,0,0,0,0,0,7.4018,7.4089,7.407,7.408,7.4123,7.4168,7.4173,7.4152,7.4114,7.4147,7.4142,7.4107,7.4197,7.4158,7.4168,7.4217,7.4307,7.4315,7.4322,7.4395,7.4412,7.4427,0,0,0,0,0,0,7.4088,7.4089,7.4067,7.4142,7.4156,7.4157,7.4197,7.4171,7.4195,7.4187,7.4158,7.416,7.4225,7.4227,7.4183,7.4301,7.4245,7.4256,7.4297,7.4314,7.4327,7.4325,7.4118,0,0,0,0,0,7.4112,7.415,7.4148,7.4214,7.4222,7.4209,7.4228,7.421,7.4223,7.4228,7.4227,7.424,7.4272,7.4293,7.4321,7.4401,7.4402,7.4439,7.4453,7.4464,7.4473,7.4516,7.4533,7.4351,7.4351,7.4351,0,0,7.4162,7.4167,7.4192,7.4228,7.4237,7.4276,7.4214,7.4258,7.4286,7.4234,7.4291,7.4292,7.4304,7.4375,7.4406,7.4378,7.4523,7.4474,7.4482,7.4485,7.4526,7.4543,7.4558,7.4356,7.4356,7.4355,0,0,7.4273,7.4281,7.4337,7.4348,7.4363,7.4354,7.4367,7.4374,7.4372,7.443,7.4392,7.4425,7.4479,7.449,7.4503,7.4621,7.459,7.4631,7.47,7.4743,7.4757,7.477,7.4812,7.4828,7.464,7.464,7.464,0,7.4332,7.4391,7.4369,7.4416,7.4433,7.439,7.4446,7.4457,7.448,7.4493,7.4461,7.453,7.4535,7.4609,7.4638,7.4649,7.4664,7.4629,7.4757,7.4769,7.4781,7.4821,7.4837,7.4645,7.4644,7.4644,7.4643,0,7.4464,7.4506,7.4549,7.4575,7.4596,7.4648,7.4633,7.4658,7.4639,7.4633,7.4693,7.4698,7.4727,7.4743,7.4724,7.4814,7.4797,7.4762,7.4706,7.4804,7.4841,7.4856,7.4652,7.465,7.4649,7.4647,0,0,7.4618,7.4633,7.4649,7.4661,7.4675,7.4706,7.4756,7.4786,7.4808,7.4826,7.4867,7.4915,7.4884,7.4898,7.488,7.4918,7.5012,7.4878,7.4878,7.4904,7.5113,7.5139,7.5157,7.4992,7.4995,7.4997,7.5112,0,7.4728,7.4816,7.4798,7.4883,7.4922,7.4882,7.4926,7.4939,7.4936,7.4967,7.4962,7.4998,7.4953,7.4962,7.4997,7.4993,7.5054,7.4985,7.503,7.5032,7.5028,7.5177,7.5205,7.5313,7.5126,7.5129,7.513,0,7.4868,7.4894,7.4984,7.4994,7.5009,7.5049,7.5076,7.5107,7.5121,7.5116,7.5134,7.5109,7.5158,7.5103,7.517,7.5124,7.5141,7.5142,7.5146,7.5149,7.5087,7.5185,7.5346,7.5363,7.5153,7.5151,7.515,0,7.4973,7.5029,7.5091,7.5102,7.5115,7.5144,7.515,7.5162,7.5182,7.5205,7.5218,7.5246,7.5262,7.5284,7.5268,7.5229,7.5339,7.5281,7.5336,7.5337,7.5361,7.5359,7.5528,7.5372,7.5371,7.5371,7.5371,0,7.5098,7.5155,7.5138,7.5176,7.5239,7.5218,7.528,7.5281,7.5292,7.5329,7.5296,7.5331,7.5308,7.5341,7.5329,7.5387,7.5394,7.5391,7.5387,7.5395,7.5395,7.5405,7.5398,7.5375,7.5375,7.5374,7.5373,0,7.5225,7.5216,7.5281,7.5289,7.5292,7.5338,7.5344,7.5379,7.5374,7.5421,7.5431,7.5423,7.5461,7.5447,7.5486,7.5478,7.5553,7.5539,7.5549,7.5546,7.5601,7.5597,7.5783,7.5807,7.5634,7.5636,7.5637,0,7.5306,7.5349,7.5362,7.5386,7.5395,7.5433,7.5454,7.5435,7.5458,7.5479,7.5512,7.5547,7.5574,7.5636,7.5633,7.5664,7.565,7.5713,7.5654,7.5661,7.5652,7.565,7.5655,7.5725,7.5727,7.5729,7.573,0,7.545,7.5444,7.5477,7.5509,7.5535,7.5558,7.5579,7.5599,7.5582,7.5609,7.5649,7.567,7.5712,7.5747,7.5775,7.578,7.5753,7.5749,7.5763,7.5771,7.5776,7.5775,7.5582,7.5745,7.5743,7.5742,7.5741,7.5741,7.5557,7.5594,7.561,7.5648,7.5661,7.5682,7.5716,7.5716,7.5749,7.5783,7.5769,7.5815,7.5829,7.5864,7.5873,7.5908,7.5883,7.5904,7.5909,7.5915,7.5923,7.577,7.5913,7.5912,7.5912,7.5912,7.5911,0,7.57,7.5709,7.5744,7.5775,7.5805,7.5778,7.5799,7.5826,7.5867,7.5883,7.5911,7.5957,7.5992,7.5992,7.6025,7.6052,7.6041,7.6062,7.6059,7.6062,7.5942,7.5927,7.6071,7.6071,7.6071,7.6071,7.6071,7.6071,7.5779,7.5841,7.5837,7.5906,7.5913,7.5959,7.5974,7.5993,7.6006,7.6059,7.6089,7.6089,7.6099,7.6133,7.6163,7.6162,7.6176,7.6202,7.6197,7.6085,7.607,7.6054,7.604,7.6205,7.6205,7.6313,7.6314,7.6315]}]]